Weather History for Deming, NM

Change the Weather History Date:

Thursday, June 13, 2013

  Actual Average Record
Temperature  
Mean Temperature 88 °F 77 °F  
Max Temperature 102 °F 95 °F 105 °F (2006)
Min Temperature 75 °F 59 °F 46 °F (1967)
Cooling Degree Days 22    
Growing Degree Days 38 (Base 50)    
Moisture  
Dew Point 46 °F    
Average Humidity 25    
Maximum Humidity 43    
Minimum Humidity 11    
Precipitation  
Precipitation 0.00 in 0.02 in 0.34 in (1973)
Month to date precipitation 0.09  
Year to date precipitation 2.50  
Sea Level Pressure  
Sea Level Pressure 29.77 in    
Wind  
Wind Speed 9 mph (ESE)    
Max Wind Speed 21 mph    
Max Gust Speed 31 mph    
Visibility 9 miles    
Events Rain , Thunderstorm    
T = Trace of Precipitation, MM = Missing Value Source: NWS Daily Summary

Daily Weather History Graph

Daily Weather History Graph

Search for Another Location

Airport:

Trip Planner

Search our weather history database for the weather conditions in past years. The results will help you decide how hot, cold, wet, or windy it might be!

Date:

Astronomy

Jun. 13, 2013 Rise Set
Actual Time 6:03 AM MDT 8:18 PM MDT
Civil Twilight 5:35 AM MDT 8:46 PM MDT
Nautical Twilight 5:00 AM MDT 9:21 PM MDT
Astronomical Twilight 4:23 AM MDT 9:59 PM MDT
Moon 10:30 AM MDT (6/13) 11:41 PM MDT (6/13)
Length of Visible Light 15h 11m
Length of Day
14h 14m
Waxing Crescent, 22% of the Moon is Illuminated
Jun 13
Waxing Crescent
Jun 16
First Quarter
Jun 23
Full
Jun 29
Last Quarter
Jul 8
New

Hourly Weather History & Observations

Time (MDT) Temp. Heat Index Dew Point Humidity Pressure Visibility Wind Dir Wind Speed Gust Speed Precip Events Conditions
12:53 AM 88.0 °F - 36.0 °F 16% 29.74 in 10.0 mi ESE 8.1 mph - N/A   Clear
1:53 AM 84.9 °F - 39.0 °F 20% 29.73 in 10.0 mi SSE 6.9 mph - N/A   Clear
2:53 AM 81.0 °F - 39.0 °F 22% 29.74 in 10.0 mi East 6.9 mph - N/A   Clear
3:53 AM 82.0 °F - 43.0 °F 25% 29.73 in 10.0 mi East 10.4 mph - N/A   Partly Cloudy
4:53 AM 79.0 °F - 50.0 °F 36% 29.73 in 10.0 mi ENE 5.8 mph - N/A   Clear
5:53 AM 77.0 °F - 53.1 °F 43% 29.76 in 10.0 mi ENE 9.2 mph - N/A   Clear
6:53 AM 75.0 °F - 48.0 °F 38% 29.78 in 10.0 mi ENE 8.1 mph - N/A   Clear
7:53 AM 78.1 °F - 52.0 °F 40% 29.80 in 10.0 mi NE 8.1 mph - N/A   Clear
8:53 AM 82.9 °F 82.0 °F 55.0 °F 38% 29.81 in - ENE 5.8 mph - N/A   Clear
9:53 AM 86.0 °F 84.5 °F 55.0 °F 35% 29.80 in 10.0 mi NE 6.9 mph - N/A   Clear
10:53 AM 89.1 °F - 52.0 °F 28% 29.79 in 10.0 mi Variable 4.6 mph - N/A   Clear
11:53 AM 93.0 °F - 51.1 °F 24% 29.77 in 10.0 mi ENE 11.5 mph 20.7 mph N/A   Clear
12:53 PM 93.9 °F - 48.0 °F 21% 29.76 in 10.0 mi Calm Calm - N/A   Clear
1:53 PM 96.1 °F - 46.0 °F 18% 29.72 in 10.0 mi South 9.2 mph - N/A   Clear
2:53 PM 99.0 °F - 45.0 °F 16% 29.69 in 10.0 mi ESE 6.9 mph 16.1 mph N/A   Partly Cloudy
3:53 PM 99.0 °F - 36.0 °F 11% 29.66 in 10.0 mi East 6.9 mph 18.4 mph N/A   Clear
4:53 PM 100.9 °F - 37.0 °F 11% 29.65 in 10.0 mi North 9.2 mph - N/A   Clear
5:53 PM 97.0 °F - 37.0 °F 12% 29.63 in 10.0 mi North 15.0 mph 23.0 mph N/A   Clear
6:32 PM 95.0 °F - 35.6 °F 12% 29.91 in 8.0 mi NE 8.1 mph - N/A   Clear
6:53 PM 93.9 °F - 37.0 °F 14% 29.65 in 10.0 mi SE 18.4 mph 23.0 mph 0.00 in Rain , Thunderstorm Light Rain
7:14 PM 93.2 °F - 35.6 °F 13% 29.91 in 10.0 mi Variable 3.5 mph - 0.00 in   Clear
7:53 PM 91.9 °F - 36.0 °F 14% 29.66 in 10.0 mi SW 11.5 mph 19.6 mph 0.00 in   Clear
8:53 PM 87.1 °F - 39.0 °F 18% 29.67 in 10.0 mi SSE 4.6 mph - N/A   Clear
9:33 PM 87.8 °F - 51.8 °F 29% 29.95 in 2.5 mi ESE 20.7 mph 31.1 mph N/A   Haze
9:53 PM 86.0 °F - 51.1 °F 30% 29.70 in 2.5 mi SE 19.6 mph 28.8 mph N/A   Haze
10:04 PM 86.0 °F 84.2 °F 53.6 °F 33% 29.99 in 3.0 mi SE 20.7 mph 29.9 mph N/A   Haze
10:22 PM 84.2 °F 83.0 °F 55.4 °F 37% 30.02 in 5.0 mi South 6.9 mph - N/A   Haze
10:53 PM 84.0 °F - 48.9 °F 29% 29.75 in 6.0 mi South 11.5 mph - N/A   Haze
11:53 PM 82.0 °F 81.4 °F 55.0 °F 39% 29.75 in 8.0 mi South 3.5 mph - N/A   Overcast